EW7349 Weather Reports


time (UTC)temp
F
wind
direction
speed
knots
gust
knots
rain 1hr
in
rain 24hr
in
rain mn
in
humidity
%
barometer
mb
20260508090748 46 355 0.0 0.0 0.00 0.01 0.00 80 1014.2
20260508090244 46 355 0.0 1.7 0.00 0.01 0.00 80 1014.1
20260508085744 46 355 0.0 1.7 0.00 0.01 0.00 80 1014.0
20260508085244 46 355 0.0 1.7 0.00 0.01 0.00 80 1013.9
20260508084743 46 355 0.0 1.7 0.00 0.01 0.00 80 1013.8
20260508084243 46 0 0.0 1.7 0.00 0.01 0.00 80 1013.8
20260508083742 46 342 0.0 1.7 0.00 0.01 0.00 79 1013.8
20260508083456 47 51 0.0 0.9 0.00 0.01 0.00 79 1013.8
20260508082738 47 55 0.0 0.9 0.00 0.01 0.00 79 1013.8
20260508082435 47 15 0.0 2.6 0.00 0.01 0.00 81 1013.6
20260508082324 47 55 0.0 1.7 0.00 0.01 0.00 80 1013.8
20260508081231 47 65 0.9 2.6 0.00 0.01 0.00 83 1013.6
20260508080952 47 25 0.9 2.6 0.00 0.01 0.00 83 1013.6
20260508080229 47 314 0.0 2.6 0.00 0.01 0.00 83 1013.5
20260508075730 47 20 0.0 2.6 0.00 0.01 0.00 83 1013.6
20260508075228 46 333 0.0 2.6 0.00 0.01 0.00 84 1013.5
20260508074729 46 37 0.0 1.7 0.00 0.01 0.00 85 1013.5
20260508074450 46 64 0.9 3.5 0.00 0.01 0.00 86 1013.5
20260508073727 46 355 0.9 4.3 0.00 0.01 0.00 87 1013.4
20260508073227 46 84 0.9 4.3 0.00 0.01 0.00 89 1013.4
20260508072720 46 90 0.9 3.5 0.00 0.01 0.00 89 1013.2
20260508072213 46 19 0.9 3.5 0.00 0.01 0.00 90 1013.1
20260508071707 46 5 0.9 2.6 0.00 0.01 0.00 90 1013.1
20260508071203 46 23 0.0 2.6 0.00 0.01 0.00 90 1013.0
20260508070655 46 12 0.0 1.7 0.00 0.01 0.00 90 1013.0
20260508070418 46 50 0.0 2.6 0.00 0.01 0.00 90 1012.9
20260508065640 46 13 0.0 2.6 0.00 0.01 0.00 90 1012.9
20260508065136 46 0 0.0 2.6 0.00 0.01 0.00 90 1012.7
20260508064629 47 52 0.0 2.6 0.00 0.01 0.00 90 1012.7
20260508064123 47 355 0.0 0.9 0.00 0.01 0.00 90 1012.6
20260508063617 47 355 0.0 0.9 0.00 0.01 0.00 90 1012.6
20260508063112 47 355 0.0 0.9 0.00 0.01 0.00 90 1012.5
20260508062606 47 240 0.0 0.0 0.00 0.01 0.00 90 1012.5
20260508062100 47 240 0.0 0.0 0.00 0.01 0.00 90 1012.4
20260508061554 47 240 0.0 0.0 0.00 0.01 0.00 90 1012.3
20260508061312 47 240 0.0 0.0 0.00 0.01 0.00 90 1012.3
20260508060542 47 240 0.0 0.0 0.00 0.01 0.00 90 1012.3
20260508060036 48 240 0.0 0.0 0.00 0.01 0.00 90 1012.2
20260508055529 48 240 0.0 0.0 0.00 0.01 0.00 90 1012.3
20260508055023 48 240 0.0 0.0 0.00 0.01 0.00 90 1012.4
20260508054749 48 240 0.0 0.0 0.00 0.01 0.00 90 1012.4
20260508054011 48 240 0.0 0.9 0.00 0.01 0.00 90 1012.4
20260508053504 48 240 0.0 0.9 0.00 0.02 0.00 90 1012.5
20260508053000 48 240 0.0 0.0 0.00 0.02 0.00 90 1012.5
20260508052453 48 240 0.0 0.0 0.00 0.02 0.00 90 1012.4
20260508051947 48 240 0.0 0.0 0.00 0.03 0.00 90 1012.4
20260508051441 48 240 0.0 0.9 0.00 0.05 0.00 89 1012.3
20260508050936 49 240 0.0 0.9 0.00 0.06 0.00 89 1012.2
20260508050430 49 240 0.0 0.0 0.00 0.06 0.00 90 1012.1
20260508045923 49 240 0.0 0.0 0.00 0.06 0.00 90 1012.1
20260508045417 49 240 0.0 0.0 0.00 0.07 0.00 89 1012.0
20260508044911 49 240 0.0 0.0 0.00 0.07 0.00 89 1012.0
20260508044632 49 240 0.0 0.0 0.00 0.07 0.00 89 1012.0
20260508043859 49 240 0.0 0.0 0.00 0.07 0.00 89 1011.9
20260508043353 49 240 0.0 0.9 0.00 0.08 0.00 89 1011.8
20260508042848 49 240 0.0 0.9 0.00 0.10 0.00 89 1011.8
20260508042601 49 263 0.0 0.0 0.00 0.11 0.00 89 1011.7
20260508041835 49 230 0.0 0.9 0.00 0.14 0.00 89 1011.7
20260508041329 49 230 0.0 1.7 0.00 0.23 0.00 89 1011.7
20260508040823 50 252 0.0 0.9 0.00 0.32 0.00 89 1011.7
20260508040317 50 304 0.0 1.7 0.00 0.37 0.00 88 1011.7
20260508035811 50 281 0.0 1.7 0.00 0.37 0.37 88 1011.7
20260508035307 50 207 0.0 0.9 0.00 0.37 0.37 88 1011.6
20260508034800 50 207 0.0 0.0 0.00 0.37 0.37 88 1011.6
20260508034519 50 207 0.0 0.0 0.00 0.37 0.37 88 1011.4
20260508033747 50 207 0.0 0.0 0.00 0.37 0.37 88 1011.4
20260508033241 50 207 0.0 0.9 0.00 0.37 0.37 88 1011.4
20260508032736 50 207 0.0 1.7 0.00 0.37 0.37 88 1011.4
20260508032230 50 211 0.0 0.9 0.00 0.37 0.37 87 1011.4
20260508031955 51 211 0.0 0.9 0.00 0.37 0.37 87 1011.4
20260508031217 51 219 0.0 1.7 0.00 0.37 0.37 87 1011.3
20260508030931 51 219 0.0 1.7 0.00 0.37 0.37 87 1011.3
20260508030205 51 268 0.0 1.7 0.00 0.37 0.37 88 1011.3
20260508025700 51 265 0.0 1.7 0.00 0.37 0.37 87 1011.3
20260508025152 51 209 0.0 1.7 0.00 0.37 0.37 87 1011.3
20260508024647 51 202 0.0 1.7 0.00 0.37 0.37 87 1011.3
20260508024141 51 202 0.0 1.7 0.00 0.37 0.37 87 1011.3
20260508023640 51 203 0.0 1.7 0.00 0.37 0.37 87 1011.3
20260508023126 51 203 0.0 1.7 0.00 0.37 0.37 87 1011.2
20260508022619 51 201 0.0 3.5 0.00 0.37 0.37 86 1011.2
20260508022330 51 271 0.0 3.5 0.00 0.37 0.37 86 1011.2
20260508021607 51 192 0.0 1.7 0.00 0.37 0.37 86 1011.2
20260508021322 51 216 0.0 0.9 0.00 0.37 0.37 85 1011.1
20260508020556 51 252 0.0 0.0 0.00 0.37 0.37 85 1011.0
20260508020525 51 252 0.0 0.9 0.00 0.37 0.37 85 1011.0
20260508015811 51 252 0.0 0.9 0.00 0.37 0.37 84 1011.0
20260508015041 51 252 0.0 0.9 0.00 0.37 0.37 84 1010.9
20260508014531 52 245 0.0 1.7 0.00 0.37 0.37 84 1010.9
20260508014029 52 248 0.0 1.7 0.00 0.37 0.37 83 1010.7
20260508013737 52 217 0.0 2.6 0.00 0.37 0.37 83 1010.8
20260508013008 52 218 0.0 2.6 0.00 0.37 0.37 82 1010.8
20260508012504 52 250 0.0 0.0 0.00 0.37 0.37 82 1010.8
20260508011956 52 250 0.0 0.0 0.00 0.37 0.37 81 1010.7
20260508011450 53 250 0.0 0.0 0.00 0.37 0.37 81 1010.7
20260508010945 53 250 0.0 0.0 0.00 0.37 0.37 80 1010.7
20260508010700 53 250 0.0 0.0 0.00 0.37 0.37 80 1010.6
20260508005934 53 250 0.0 0.0 0.00 0.37 0.37 79 1010.5
20260508005428 53 250 0.0 0.0 0.00 0.37 0.37 79 1010.5
20260508004921 54 250 0.0 0.0 0.00 0.37 0.37 78 1010.4
20260508004415 54 250 0.0 0.0 0.00 0.37 0.37 77 1010.4
20260508003910 54 250 0.0 0.0 0.00 0.37 0.37 76 1010.3
20260508003852 54 250 0.0 0.0 0.00 0.37 0.37 76 1010.2
20260508002858 55 250 0.0 0.0 0.00 0.37 0.37 75 1010.1
20260508002827 55 250 0.0 0.9 0.00 0.37 0.37 74 1010.1
20260508001846 55 250 0.0 0.9 0.00 0.37 0.37 74 1010.1
20260508001607 56 262 0.0 0.0 0.00 0.37 0.37 73 1010.1
20260508000833 56 262 0.0 0.0 0.00 0.37 0.37 73 1010.0
20260508000554 56 262 0.0 0.0 0.00 0.37 0.37 72 1010.0
20260507235827 56 262 0.0 1.7 0.00 0.37 0.37 71 1009.9
20260507235324 56 262 0.0 1.7 0.00 0.37 0.37 71 1009.9
20260507234825 56 238 0.0 1.7 0.00 0.37 0.37 71 1009.8
20260507234325 57 253 0.0 3.5 0.00 0.37 0.37 69 1009.8
20260507233825 57 205 0.9 3.5 0.00 0.37 0.37 70 1009.8
20260507233324 57 157 0.9 2.6 0.00 0.37 0.37 69 1009.7
20260507232821 57 229 0.9 2.6 0.00 0.37 0.37 69 1009.6
20260507232321 58 209 0.9 3.5 0.00 0.37 0.37 69 1009.6
20260507231817 58 198 0.9 3.5 0.00 0.37 0.37 68 1009.6
20260507231807 58 210 0.9 2.6 0.00 0.37 0.37 68 1009.4
20260507230818 58 65 0.0 2.6 0.00 0.37 0.37 68 1009.4
20260507230315 58 126 0.0 3.5 0.00 0.37 0.37 68 1009.3
20260507225814 58 250 0.9 3.5 0.00 0.37 0.37 67 1009.2
20260507225532 59 263 0.9 2.6 0.00 0.37 0.37 67 1009.2
20260507224814 59 250 0.9 3.5 0.00 0.37 0.37 66 1009.2
20260507224315 59 221 0.9 3.5 0.00 0.37 0.37 65 1009.1
20260507223813 59 211 0.9 3.5 0.00 0.37 0.37 65 1009.1
20260507223313 59 109 0.9 4.3 0.00 0.37 0.37 65 1009.1
20260507222811 59 302 0.9 4.3 0.00 0.37 0.37 67 1009.0
20260507222317 59 209 0.9 4.3 0.00 0.37 0.37 66 1009.0
20260507221813 59 130 0.9 2.6 0.00 0.37 0.37 67 1009.0
20260507221312 59 128 0.9 2.6 0.00 0.37 0.37 66 1008.9
20260507220812 59 182 0.9 3.5 0.00 0.37 0.37 65 1009.0
20260507220314 59 211 0.9 3.5 0.00 0.37 0.37 64 1008.9
20260507215813 60 306 0.9 3.5 0.00 0.37 0.37 63 1008.9
20260507215313 60 183 0.9 3.5 0.00 0.37 0.37 64 1008.9
20260507215258 59 113 0.9 3.5 0.00 0.37 0.37 65 1008.8
20260507214312 59 104 0.9 2.6 0.00 0.37 0.37 65 1008.9
20260507213813 60 235 1.7 6.1 0.00 0.37 0.37 66 1008.8
20260507213312 60 249 1.7 6.1 0.00 0.37 0.37 64 1008.9
20260507212814 60 111 0.9 3.5 0.00 0.37 0.37 65 1008.9
20260507212311 60 118 0.9 2.6 0.00 0.37 0.37 63 1008.7
20260507211811 60 178 1.7 2.6 0.00 0.37 0.37 61 1008.9
20260507211312 60 120 0.9 5.2 0.00 0.37 0.37 62 1008.9
20260507210811 60 157 1.7 5.2 0.00 0.37 0.37 61 1008.8
20260507210311 60 113 0.9 5.2 0.00 0.37 0.37 63 1008.8
20260507205813 60 94 0.9 4.3 0.00 0.37 0.37 60 1008.7
20260507205312 60 190 0.9 4.3 0.00 0.37 0.37 60 1008.8
20260507204812 61 136 0.9 2.6 0.00 0.37 0.37 61 1008.7
20260507204311 61 114 0.9 3.5 0.00 0.37 0.37 62 1008.8
20260507203809 60 244 0.9 3.5 0.00 0.37 0.37 60 1009.0
20260507203310 61 246 1.7 3.5 0.00 0.37 0.37 58 1009.1
20260507203026 61 123 1.7 3.5 0.00 0.37 0.37 60 1009.1
20260507202309 62 257 0.9 3.5 0.00 0.37 0.37 60 1009.0
20260507201810 62 307 0.9 3.5 0.00 0.37 0.37 59 1009.0
20260507201310 61 119 0.9 2.6 0.00 0.37 0.37 62 1009.0
20260507201021 60 131 0.9 1.7 0.00 0.37 0.37 59 1009.0
20260507200256 60 118 0.9 3.5 0.00 0.37 0.37 60 1009.1
20260507200015 61 65 1.7 5.2 0.00 0.37 0.37 60 1009.1
20260507195244 62 129 1.7 5.2 0.00 0.37 0.37 62 1009.3
20260507194738 60 81 0.9 2.6 0.00 0.37 0.37 66 1009.5
20260507194453 59 189 0.9 3.5 0.00 0.37 0.37 63 1009.5
20260507193726 60 271 0.9 3.5 0.00 0.37 0.37 68 1009.6
20260507193227 60 250 0.9 3.5 0.00 0.37 0.37 70 1009.5
20260507192728 58 260 0.9 3.5 0.00 0.37 0.37 67 1009.3
20260507192227 59 288 0.9 5.2 0.00 0.37 0.37 68 1009.4
20260507191725 59 211 0.9 5.2 0.00 0.37 0.37 68 1009.4
20260507191223 59 306 0.9 3.5 0.00 0.37 0.37 67 1009.6
20260507190723 56 123 0.9 2.6 0.00 0.37 0.37 72 1009.4
20260507190223 56 137 0.9 2.6 0.00 0.37 0.37 69 1009.5
20260507185725 57 132 1.7 6.1 0.00 0.37 0.37 70 1009.7
20260507185221 57 237 1.7 6.1 0.00 0.37 0.37 72 1009.9
20260507184721 57 82 0.9 2.6 0.00 0.37 0.37 74 1010.0
20260507184221 57 267 1.7 3.5 0.00 0.37 0.37 78 1010.2
20260507183721 56 201 1.7 3.5 0.00 0.37 0.37 76 1009.7
20260507183223 57 126 1.7 6.1 0.00 0.37 0.37 69 1010.2
20260507182721 58 198 0.9 6.1 0.00 0.37 0.37 63 1010.4
20260507182440 57 151 0.9 2.6 0.00 0.37 0.37 69 1010.6
20260507181722 57 152 0.9 2.6 0.00 0.37 0.37 67 1010.4
20260507181223 57 218 0.9 2.6 0.00 0.37 0.37 73 1010.0
20260507180717 57 147 0.9 2.6 0.00 0.37 0.37 69 1010.2
20260507180210 56 120 0.9 2.6 0.00 0.37 0.37 75 1010.4
20260507175714 55 139 0.9 1.7 0.00 0.37 0.37 70 1010.4
20260507175158 55 117 0.0 1.7 0.00 0.37 0.37 69 1010.5
20260507174652 55 104 0.9 1.7 0.00 0.37 0.37 68 1010.8
20260507174407 55 103 0.9 2.6 0.00 0.37 0.37 69 1010.6
20260507173640 55 129 0.9 2.6 0.00 0.37 0.37 69 1010.4
20260507173355 56 104 0.9 1.7 0.00 0.37 0.37 72 1010.8
20260507172628 56 95 0.0 1.7 0.00 0.37 0.37 73 1010.9
20260507172123 55 163 0.0 2.6 0.00 0.37 0.37 72 1010.8
20260507171616 55 163 0.0 2.6 0.00 0.37 0.37 74 1010.9
20260507171330 55 169 0.9 2.6 0.00 0.37 0.37 73 1011.0
20260507170605 57 115 0.9 1.7 0.00 0.37 0.37 72 1011.0
20260507170058 55 107 0.0 1.7 0.00 0.37 0.37 80 1010.9
20260507165552 54 40 0.0 0.9 0.00 0.37 0.37 78 1011.4
20260507165046 54 30 0.0 1.7 0.00 0.37 0.37 78 1011.6
20260507164541 54 30 0.0 1.7 0.00 0.37 0.37 82 1011.9
20260507164034 54 71 0.0 1.7 0.00 0.37 0.37 85 1011.8
20260507163529 54 71 0.9 1.7 0.00 0.37 0.37 77 1012.0
20260507163022 55 71 0.9 1.7 0.00 0.37 0.37 68 1011.8
20260507162516 55 57 0.0 2.6 0.00 0.37 0.37 64 1012.1
20260507162016 55 74 0.0 2.6 0.00 0.37 0.37 63 1011.9
20260507161514 55 70 0.0 1.7 0.00 0.37 0.37 66 1011.7
20260507161012 55 61 0.0 1.7 0.00 0.37 0.37 66 1011.7
20260507160509 55 61 0.0 2.6 0.00 0.37 0.37 66 1011.8
20260507160010 55 21 0.9 2.6 0.00 0.37 0.37 68 1011.9
20260507155509 55 54 0.0 2.6 0.00 0.37 0.37 72 1011.8
20260507155006 55 28 0.0 1.7 0.00 0.37 0.37 73 1011.9
20260507154505 55 59 0.0 1.7 0.00 0.37 0.37 74 1011.9
20260507154007 55 76 0.0 1.7 0.00 0.37 0.37 71 1012.0
20260507153502 55 76 0.0 1.7 0.00 0.37 0.37 71 1012.0
20260507153000 55 89 0.0 1.7 0.00 0.37 0.37 70 1011.9
20260507152728 55 88 0.9 3.5 0.00 0.37 0.37 69 1011.9
20260507151956 55 105 0.9 3.5 0.00 0.37 0.37 70 1012.1
20260507151455 54 39 0.0 3.5 0.00 0.37 0.37 72 1012.0
20260507150951 54 67 0.9 2.6 0.00 0.37 0.37 72 1012.0
20260507150450 54 67 0.9 3.5 0.00 0.37 0.37 72 1012.0
20260507145951 54 99 0.0 3.5 0.00 0.37 0.37 71 1012.0
20260507145450 54 44 0.0 1.7 0.00 0.37 0.37 72 1012.1
20260507144949 54 44 0.0 2.6 0.00 0.38 0.37 69 1012.2
20260507144449 54 76 0.0 2.6 0.00 0.38 0.37 70 1012.3
20260507143951 54 73 0.9 2.6 0.00 0.38 0.37 73 1012.5
20260507143710 54 71 0.9 2.6 0.00 0.39 0.37 71 1012.6
20260507142948 54 53 0.0 2.6 0.00 0.40 0.37 72 1012.6
20260507142448 54 16 0.0 2.6 0.00 0.41 0.37 74 1012.4
20260507141948 54 65 0.9 2.6 0.00 0.42 0.37 74 1012.5
20260507141445 54 63 0.9 2.6 0.00 0.45 0.37 72 1012.6
20260507140946 54 0 0.9 3.5 0.01 0.46 0.37 72 1012.6
20260507140444 54 85 0.9 3.5 0.01 0.46 0.37 72 1012.7
20260507140211 54 74 0.9 2.6 0.01 0.46 0.37 75 1012.8
20260507135446 54 63 0.9 3.5 0.01 0.46 0.37 75 1012.8
20260507134945 54 115 0.9 3.5 0.01 0.46 0.37 75 1012.7
20260507134446 54 103 0.9 3.5 0.01 0.46 0.37 77 1012.6
20260507134205 54 24 0.9 3.5 0.01 0.46 0.37 79 1012.7
20260507133443 53 39 0.9 3.5 0.01 0.47 0.37 80 1012.8
20260507132943 53 76 0.9 3.5 0.01 0.47 0.37 80 1012.9
20260507132442 53 63 0.9 4.3 0.01 0.48 0.37 80 1012.8
20260507131943 53 32 0.9 4.3 0.01 0.48 0.37 82 1012.7
20260507131446 53 75 0.9 3.5 0.01 0.49 0.37 83 1012.7
20260507130938 53 41 0.9 3.5 0.00 0.49 0.36 84 1012.6
20260507130701 53 51 0.9 2.6 0.00 0.50 0.36 86 1012.7
20260507125928 53 88 0.9 5.2 0.00 0.50 0.36 86 1012.7
20260507125907 53 115 0.9 5.2 0.00 0.50 0.36 87 1012.6
20260507124914 54 5 0.9 3.5 0.00 0.51 0.36 89 1012.7
20260507124408 54 43 0.9 2.6 0.00 0.51 0.36 90 1012.6
20260507124345 54 130 0.9 4.3 0.00 0.51 0.36 91 1012.6
20260507123400 54 51 1.7 4.3 0.00 0.51 0.36 92 1012.2
20260507122903 54 44 0.9 4.3 0.00 0.51 0.36 92 1012.2
20260507122401 55 62 0.9 3.5 0.00 0.51 0.36 93 1012.3
20260507122355 55 69 0.9 2.6 0.00 0.51 0.36 93 1012.3
20260507121401 55 56 0.9 2.6 0.00 0.51 0.36 93 1012.4
20260507120901 55 102 0.9 1.7 0.00 0.51 0.36 93 1012.2
20260507120402 55 105 0.0 0.9 0.00 0.51 0.36 93 1012.1
20260507115901 54 61 0.0 1.7 0.00 0.51 0.36 93 1011.9
20260507115402 54 61 0.0 1.7 0.00 0.51 0.36 93 1012.1
20260507114857 54 105 0.0 2.6 0.00 0.51 0.36 93 1012.1
20260507114358 54 355 0.9 2.6 0.00 0.51 0.36 93 1012.1
20260507113858 54 57 0.0 1.7 0.00 0.51 0.36 93 1012.1
20260507113359 54 57 0.0 0.0 0.00 0.51 0.36 93 1012.1
20260507112858 54 57 0.0 0.0 0.00 0.51 0.36 93 1012.0
20260507112359 54 57 0.0 0.0 0.00 0.51 0.36 93 1011.6
20260507111857 54 57 0.0 0.9 0.00 0.51 0.36 93 1011.5
20260507111358 54 57 0.0 0.9 0.00 0.51 0.36 93 1011.8
20260507110857 54 57 0.0 0.9 0.00 0.51 0.36 93 1011.9
20260507110623 54 57 0.0 0.0 0.00 0.51 0.36 93 1011.9
20260507110117 54 57 0.0 0.0 0.00 0.51 0.36 93 1011.9
20260507105357 54 57 0.0 0.9 0.00 0.51 0.36 93 1011.8
20260507104857 54 57 0.0 0.9 0.00 0.51 0.36 93 1011.8
20260507104621 54 57 0.0 0.0 0.00 0.51 0.36 93 1012.0
20260507103855 54 57 0.0 0.9 0.00 0.51 0.36 93 1011.7
20260507103356 54 57 0.0 0.9 0.00 0.51 0.36 93 1011.7
20260507102856 54 57 0.0 0.9 0.00 0.51 0.36 93 1011.7
20260507102356 54 57 0.0 0.9 0.00 0.51 0.36 93 1011.6
20260507102123 54 57 0.0 0.0 0.00 0.51 0.36 92 1011.5
20260507101352 54 57 0.0 0.9 0.00 0.51 0.36 92 1011.5
20260507100853 54 57 0.0 0.9 0.00 0.51 0.36 92 1011.3
20260507100347 54 78 0.0 0.0 0.00 0.51 0.36 92 1011.4
20260507095842 54 78 0.0 0.0 0.00 0.51 0.36 92 1011.4
20260507095335 54 78 0.0 0.0 0.00 0.51 0.36 92 1011.3
20260507095044 54 78 0.0 0.0 0.00 0.51 0.36 92 1011.2
20260507094544 54 78 0.0 0.0 0.00 0.51 0.36 92 1011.3
20260507093818 54 78 0.0 0.0 0.00 0.51 0.36 92 1011.3
20260507093311 54 78 0.0 0.0 0.00 0.51 0.36 92 1011.4
20260507092805 54 78 0.0 0.0 0.00 0.51 0.36 92 1011.4
20260507092300 54 78 0.0 0.0 0.00 0.51 0.36 92 1011.3
20260507091753 54 56 0.0 0.0 0.00 0.51 0.36 92 1011.1
20260507091247 54 57 0.0 0.9 0.00 0.51 0.36 92 1011.1